Terminal Aerodrome Forecast
Issued by NWS

Home | Current Version | Previous Version | Graphics & Text | Print | Product List | Glossary On
Versions: 1 2 3 4 5 6 7 8 9 10 11 12 13 14 15 16 17 18 19 20 21 22 23
000
FTUS42 KMHX 012041 AAB
TAFPGV
TAF AMD
KPGV 012041Z 0121/0218 03010KT P6SM -RA SCT015 BKN020 BKN025
     FM012300 36005KT P6SM SCT025 BKN035
     FM020600 33005KT P6SM SKC
     FM021400 35010G15KT P6SM SKC
      AMD LTD TO CLD VIS AND WIND=

USA.gov is the U.S. government's official web portal to all federal, state and local government web resources and services.